| time (UTC) | temp F | wind direction | speed MPH | gust MPH | rain 1hr in | rain 24hr in | rain mn in | humidity % | barometer mb |
| 20260903090507 | 72 | 166 | 0.0 | 2.0 | 0.00 | 0.06 | 0.00 | 92 | 1016.7 |
| 20260903090009 | 72 | 166 | 0.0 | 2.0 | 0.00 | 0.06 | 0.00 | 92 | 1016.7 |
| 20260903085502 | 72 | 166 | 0.0 | 0.0 | 0.00 | 0.06 | 0.00 | 92 | 1016.7 |
| 20260903085009 | 72 | 166 | 0.0 | 0.0 | 0.00 | 0.06 | 0.00 | 92 | 1016.7 |
| 20260903084508 | 72 | 167 | 0.0 | 0.0 | 0.00 | 0.06 | 0.00 | 92 | 1016.8 |
| 20260903084003 | 72 | 166 | 0.0 | 0.0 | 0.00 | 0.06 | 0.00 | 92 | 1016.7 |
| 20260903083507 | 72 | 166 | 0.0 | 0.0 | 0.00 | 0.06 | 0.00 | 92 | 1016.8 |
| 20260903083003 | 72 | 165 | 0.0 | 2.0 | 0.00 | 0.06 | 0.00 | 92 | 1016.9 |
| 20260903082503 | 72 | 165 | 0.0 | 2.0 | 0.00 | 0.06 | 0.00 | 92 | 1016.8 |
| 20260903082004 | 72 | 198 | 0.0 | 2.0 | 0.00 | 0.06 | 0.00 | 92 | 1016.8 |
| 20260903081505 | 72 | 198 | 1.0 | 2.0 | 0.00 | 0.06 | 0.00 | 92 | 1016.7 |
| 20260903081006 | 72 | 151 | 0.0 | 2.0 | 0.00 | 0.06 | 0.00 | 92 | 1016.8 |
| 20260903080503 | 72 | 151 | 0.0 | 2.0 | 0.00 | 0.06 | 0.00 | 92 | 1016.8 |
| 20260903080010 | 72 | 151 | 0.0 | 2.0 | 0.00 | 0.06 | 0.00 | 92 | 1016.8 |
| 20260903075509 | 72 | 151 | 1.0 | 2.0 | 0.00 | 0.06 | 0.00 | 92 | 1016.8 |
| 20260903075006 | 72 | 151 | 1.0 | 2.0 | 0.00 | 0.06 | 0.00 | 92 | 1016.7 |
| 20260903074517 | 72 | 151 | 1.0 | 4.0 | 0.00 | 0.06 | 0.00 | 92 | 1016.8 |
| 20260903074006 | 72 | 143 | 1.0 | 4.0 | 0.00 | 0.06 | 0.00 | 92 | 1016.8 |
| 20260903073503 | 72 | 114 | 0.0 | 1.0 | 0.00 | 0.06 | 0.00 | 92 | 1016.9 |
| 20260903073030 | 72 | 114 | 0.0 | 0.0 | 0.00 | 0.06 | 0.00 | 92 | 1017.0 |
| 20260903072503 | 72 | 114 | 0.0 | 0.0 | 0.00 | 0.06 | 0.00 | 92 | 1016.9 |
| 20260903072003 | 72 | 114 | 0.0 | 0.0 | 0.00 | 0.06 | 0.00 | 92 | 1017.0 |
| 20260903071507 | 72 | 114 | 0.0 | 0.0 | 0.00 | 0.06 | 0.00 | 92 | 1017.1 |
| 20260903071005 | 72 | 114 | 0.0 | 0.0 | 0.00 | 0.06 | 0.00 | 92 | 1017.0 |
| 20260903070504 | 72 | 114 | 0.0 | 0.0 | 0.00 | 0.06 | 0.00 | 92 | 1017.0 |
| 20260903070012 | 72 | 114 | 0.0 | 0.0 | 0.00 | 0.06 | 0.00 | 91 | 1017.1 |
| 20260903065504 | 72 | 114 | 0.0 | 0.0 | 0.00 | 0.06 | 0.00 | 91 | 1017.1 |
| 20260903065008 | 72 | 114 | 0.0 | 0.0 | 0.00 | 0.06 | 0.00 | 91 | 1017.0 |
| 20260903064511 | 72 | 114 | 0.0 | 0.0 | 0.00 | 0.06 | 0.00 | 91 | 1017.1 |
| 20260903064010 | 72 | 114 | 0.0 | 0.0 | 0.00 | 0.06 | 0.00 | 91 | 1017.1 |
| 20260903063510 | 72 | 114 | 0.0 | 0.0 | 0.00 | 0.06 | 0.00 | 91 | 1017.2 |
| 20260903063009 | 72 | 114 | 0.0 | 0.0 | 0.00 | 0.06 | 0.00 | 91 | 1017.2 |
| 20260903062512 | 72 | 114 | 0.0 | 0.0 | 0.00 | 0.06 | 0.00 | 91 | 1017.2 |
| 20260903062009 | 72 | 114 | 0.0 | 0.0 | 0.00 | 0.06 | 0.00 | 91 | 1017.2 |
| 20260903061507 | 72 | 114 | 0.0 | 0.0 | 0.00 | 0.06 | 0.00 | 91 | 1017.2 |
| 20260903061004 | 72 | 114 | 0.0 | 0.0 | 0.00 | 0.06 | 0.00 | 91 | 1017.1 |
| 20260903060504 | 72 | 114 | 0.0 | 0.0 | 0.00 | 0.06 | 0.00 | 91 | 1017.2 |
| 20260903060006 | 72 | 114 | 0.0 | 0.0 | 0.00 | 0.06 | 0.00 | 91 | 1017.2 |
| 20260903055506 | 72 | 114 | 0.0 | 0.0 | 0.00 | 0.06 | 0.00 | 91 | 1017.3 |
| 20260903055003 | 72 | 114 | 0.0 | 0.0 | 0.00 | 0.06 | 0.00 | 91 | 1017.2 |
| 20260903054517 | 72 | 114 | 0.0 | 0.0 | 0.00 | 0.06 | 0.00 | 91 | 1017.2 |
| 20260903054008 | 73 | 114 | 0.0 | 0.0 | 0.00 | 0.06 | 0.00 | 91 | 1017.2 |
| 20260903053504 | 73 | 114 | 0.0 | 0.0 | 0.00 | 0.06 | 0.00 | 91 | 1017.1 |
| 20260903053022 | 73 | 114 | 0.0 | 0.0 | 0.00 | 0.06 | 0.00 | 91 | 1017.1 |
| 20260903052506 | 73 | 114 | 0.0 | 0.0 | 0.00 | 0.06 | 0.00 | 91 | 1017.1 |
| 20260903052012 | 73 | 114 | 0.0 | 0.0 | 0.00 | 0.06 | 0.00 | 91 | 1017.1 |
| 20260903051538 | 73 | 114 | 0.0 | 0.0 | 0.00 | 0.06 | 0.00 | 91 | 1017.1 |
| 20260903051006 | 73 | 114 | 0.0 | 0.0 | 0.00 | 0.06 | 0.00 | 91 | 1017.0 |
| 20260903050519 | 73 | 114 | 0.0 | 0.0 | 0.00 | 0.06 | 0.00 | 91 | 1017.2 |
| 20260903050020 | 73 | 114 | 0.0 | 0.0 | 0.00 | 0.06 | 0.00 | 91 | 1017.2 |
| 20260903045514 | 73 | 114 | 0.0 | 0.0 | 0.00 | 0.06 | 0.06 | 91 | 1017.1 |
| 20260903045003 | 73 | 114 | 0.0 | 0.0 | 0.00 | 0.06 | 0.06 | 91 | 1017.1 |
| 20260903044511 | 73 | 114 | 0.0 | 0.0 | 0.00 | 0.06 | 0.06 | 90 | 1017.2 |
| 20260903044008 | 73 | 114 | 0.0 | 0.0 | 0.00 | 0.06 | 0.06 | 90 | 1017.2 |
| 20260903043508 | 73 | 114 | 0.0 | 0.0 | 0.00 | 0.06 | 0.06 | 91 | 1017.2 |
| 20260903043023 | 73 | 114 | 0.0 | 0.0 | 0.00 | 0.06 | 0.06 | 91 | 1017.2 |
| 20260903042510 | 73 | 114 | 0.0 | 0.0 | 0.00 | 0.06 | 0.06 | 91 | 1017.3 |
| 20260903042010 | 73 | 114 | 0.0 | 0.0 | 0.00 | 0.06 | 0.06 | 91 | 1017.2 |
| 20260903041503 | 73 | 114 | 0.0 | 1.0 | 0.00 | 0.06 | 0.06 | 91 | 1017.1 |
| 20260903041003 | 73 | 114 | 0.0 | 1.0 | 0.00 | 0.06 | 0.06 | 91 | 1017.2 |
| 20260903040504 | 73 | 114 | 0.0 | 0.0 | 0.00 | 0.06 | 0.06 | 91 | 1017.2 |
| 20260903040009 | 73 | 114 | 0.0 | 0.0 | 0.00 | 0.06 | 0.06 | 91 | 1017.3 |
| 20260903035502 | 73 | 114 | 0.0 | 0.0 | 0.00 | 0.06 | 0.06 | 91 | 1017.3 |
| 20260903035002 | 73 | 114 | 0.0 | 0.0 | 0.00 | 0.06 | 0.06 | 91 | 1017.3 |
| 20260903034503 | 73 | 114 | 0.0 | 0.0 | 0.00 | 0.06 | 0.06 | 91 | 1017.2 |
| 20260903034002 | 73 | 114 | 0.0 | 0.0 | 0.00 | 0.06 | 0.06 | 91 | 1017.1 |
| 20260903033502 | 73 | 114 | 0.0 | 0.0 | 0.00 | 0.06 | 0.06 | 91 | 1017.2 |
| 20260903033010 | 73 | 114 | 0.0 | 0.0 | 0.00 | 0.06 | 0.06 | 91 | 1017.2 |
| 20260903032506 | 73 | 114 | 0.0 | 0.0 | 0.00 | 0.06 | 0.06 | 91 | 1017.3 |
| 20260903032001 | 73 | 114 | 0.0 | 0.0 | 0.00 | 0.06 | 0.06 | 90 | 1017.3 |
| 20260903031502 | 73 | 114 | 0.0 | 0.0 | 0.00 | 0.06 | 0.06 | 90 | 1017.3 |
| 20260903031002 | 73 | 114 | 0.0 | 2.0 | 0.00 | 0.06 | 0.06 | 90 | 1017.3 |
| 20260903030503 | 73 | 114 | 0.0 | 2.0 | 0.00 | 0.06 | 0.06 | 90 | 1017.3 |
| 20260903030004 | 73 | 114 | 0.0 | 2.0 | 0.00 | 0.06 | 0.06 | 90 | 1017.3 |
| 20260903025502 | 73 | 123 | 0.0 | 0.0 | 0.00 | 0.06 | 0.06 | 90 | 1017.3 |
| 20260903025003 | 73 | 301 | 0.0 | 0.0 | 0.00 | 0.06 | 0.06 | 90 | 1017.2 |
| 20260903024506 | 73 | 301 | 0.0 | 0.0 | 0.00 | 0.06 | 0.06 | 90 | 1017.1 |
| 20260903024004 | 74 | 301 | 0.0 | 0.0 | 0.00 | 0.06 | 0.06 | 90 | 1017.2 |
| 20260903023503 | 74 | 301 | 0.0 | 0.0 | 0.00 | 0.06 | 0.06 | 90 | 1017.3 |
| 20260903023004 | 74 | 301 | 0.0 | 0.0 | 0.00 | 0.06 | 0.06 | 90 | 1017.4 |
| 20260903022502 | 74 | 301 | 0.0 | 0.0 | 0.00 | 0.06 | 0.06 | 90 | 1017.4 |
| 20260903022003 | 74 | 301 | 0.0 | 0.0 | 0.00 | 0.06 | 0.06 | 90 | 1017.3 |
| 20260903021504 | 74 | 301 | 0.0 | 0.0 | 0.00 | 0.06 | 0.06 | 90 | 1017.3 |
| 20260903021003 | 74 | 301 | 0.0 | 0.0 | 0.00 | 0.06 | 0.06 | 90 | 1017.3 |
| 20260903020502 | 74 | 301 | 0.0 | 0.0 | 0.00 | 0.06 | 0.06 | 90 | 1017.2 |
| 20260903020011 | 74 | 301 | 0.0 | 0.0 | 0.00 | 0.06 | 0.06 | 90 | 1017.1 |
| 20260903015504 | 74 | 301 | 0.0 | 0.0 | 0.00 | 0.06 | 0.06 | 90 | 1017.2 |
| 20260903015003 | 74 | 301 | 0.0 | 0.0 | 0.00 | 0.06 | 0.06 | 90 | 1017.1 |
| 20260903014503 | 74 | 301 | 0.0 | 0.0 | 0.00 | 0.06 | 0.06 | 90 | 1017.1 |
| 20260903014003 | 75 | 301 | 0.0 | 0.0 | 0.00 | 0.06 | 0.06 | 90 | 1017.0 |
| 20260903013503 | 75 | 301 | 0.0 | 0.0 | 0.00 | 0.06 | 0.06 | 89 | 1017.0 |
| 20260903013007 | 75 | 301 | 0.0 | 0.0 | 0.00 | 0.06 | 0.06 | 89 | 1016.7 |
| 20260903012503 | 75 | 301 | 0.0 | 0.0 | 0.00 | 0.06 | 0.06 | 89 | 1016.7 |
| 20260903012003 | 75 | 301 | 0.0 | 0.0 | 0.00 | 0.06 | 0.06 | 89 | 1016.7 |
| 20260903011513 | 75 | 301 | 0.0 | 0.0 | 0.00 | 0.06 | 0.06 | 89 | 1016.7 |
| 20260903011003 | 75 | 301 | 0.0 | 0.0 | 0.00 | 0.06 | 0.06 | 88 | 1016.7 |
| 20260903010504 | 76 | 301 | 0.0 | 0.0 | 0.00 | 0.06 | 0.06 | 88 | 1016.6 |
| 20260903010004 | 76 | 301 | 0.0 | 0.0 | 0.00 | 0.06 | 0.06 | 88 | 1016.5 |
| 20260903005504 | 76 | 301 | 0.0 | 0.0 | 0.00 | 0.06 | 0.06 | 88 | 1016.5 |
| 20260903005004 | 76 | 301 | 0.0 | 0.0 | 0.00 | 0.06 | 0.06 | 88 | 1016.5 |
| 20260903004506 | 77 | 301 | 0.0 | 0.0 | 0.00 | 0.06 | 0.06 | 88 | 1016.5 |
| 20260903004004 | 77 | 301 | 0.0 | 0.0 | 0.00 | 0.06 | 0.06 | 88 | 1016.5 |
| 20260903003503 | 77 | 301 | 0.0 | 0.0 | 0.00 | 0.06 | 0.06 | 88 | 1016.4 |
| 20260903003010 | 77 | 301 | 0.0 | 0.0 | 0.00 | 0.06 | 0.06 | 87 | 1016.4 |
| 20260903002504 | 78 | 301 | 0.0 | 0.0 | 0.00 | 0.06 | 0.06 | 87 | 1016.4 |
| 20260903002003 | 78 | 301 | 0.0 | 0.0 | 0.00 | 0.06 | 0.06 | 86 | 1016.3 |
| 20260903001504 | 78 | 301 | 0.0 | 1.0 | 0.00 | 0.06 | 0.06 | 86 | 1016.4 |
| 20260903001006 | 79 | 301 | 0.0 | 2.0 | 0.00 | 0.06 | 0.06 | 86 | 1016.5 |
| 20260903000504 | 79 | 301 | 1.0 | 2.0 | 0.00 | 0.06 | 0.06 | 85 | 1016.4 |
| 20260903000006 | 79 | 171 | 0.0 | 4.0 | 0.00 | 0.06 | 0.06 | 85 | 1016.4 |
| 20260902235505 | 79 | 171 | 0.0 | 4.0 | 0.00 | 0.06 | 0.06 | 84 | 1016.4 |
| 20260902235008 | 80 | 184 | 0.0 | 2.0 | 0.00 | 0.06 | 0.06 | 84 | 1016.5 |
| 20260902234503 | 80 | 277 | 0.0 | 2.0 | 0.00 | 0.06 | 0.06 | 84 | 1016.3 |
| 20260902234006 | 81 | 277 | 0.0 | 2.0 | 0.00 | 0.06 | 0.06 | 82 | 1016.3 |
| 20260902233508 | 81 | 277 | 1.0 | 2.0 | 0.00 | 0.06 | 0.06 | 81 | 1016.3 |
| 20260902233007 | 81 | 257 | 1.0 | 2.0 | 0.00 | 0.06 | 0.06 | 79 | 1016.3 |
| 20260902232508 | 82 | 257 | 0.0 | 4.0 | 0.00 | 0.06 | 0.06 | 79 | 1016.4 |
| 20260902232006 | 82 | 202 | 1.0 | 7.0 | 0.00 | 0.06 | 0.06 | 75 | 1016.5 |
| 20260902231505 | 82 | 258 | 4.0 | 7.0 | 0.01 | 0.06 | 0.06 | 78 | 1016.4 |
| 20260902231004 | 83 | 278 | 1.0 | 2.0 | 0.06 | 0.06 | 0.06 | 82 | 1016.2 |
| 20260902230504 | 83 | 278 | 0.0 | 3.0 | 0.06 | 0.06 | 0.06 | 79 | 1016.2 |
| 20260902230008 | 83 | 278 | 1.0 | 7.0 | 0.06 | 0.06 | 0.06 | 76 | 1016.2 |
| 20260902225504 | 82 | 226 | 3.0 | 7.0 | 0.06 | 0.06 | 0.06 | 76 | 1016.4 |
| 20260902225004 | 83 | 218 | 3.0 | 9.0 | 0.06 | 0.06 | 0.06 | 75 | 1016.3 |
| 20260902224508 | 83 | 190 | 4.0 | 9.0 | 0.06 | 0.06 | 0.06 | 78 | 1016.3 |
| 20260902224006 | 83 | 186 | 1.0 | 8.0 | 0.06 | 0.06 | 0.06 | 79 | 1016.3 |
| 20260902223509 | 84 | 162 | 5.0 | 8.0 | 0.06 | 0.06 | 0.06 | 76 | 1016.4 |
| 20260902223020 | 86 | 26 | 1.0 | 5.0 | 0.06 | 0.06 | 0.06 | 77 | 1016.3 |
| 20260902222504 | 87 | 18 | 1.0 | 6.0 | 0.06 | 0.06 | 0.06 | 71 | 1016.3 |
| 20260902222006 | 90 | 318 | 3.0 | 9.0 | 0.06 | 0.06 | 0.06 | 65 | 1016.2 |
| 20260902221504 | 94 | 298 | 5.0 | 9.0 | 0.05 | 0.05 | 0.05 | 51 | 1016.3 |
| 20260902221003 | 96 | 53 | 5.0 | 8.0 | 0.00 | 0.00 | 0.00 | 47 | 1016.3 |
| 20260902220506 | 95 | 343 | 3.0 | 5.0 | 0.00 | 0.00 | 0.00 | 46 | 1016.3 |
| 20260902220009 | 95 | 360 | 3.0 | 6.0 | 0.00 | 0.00 | 0.00 | 47 | 1016.4 |
| 20260902215504 | 95 | 32 | 2.0 | 8.0 | 0.00 | 0.00 | 0.00 | 48 | 1016.4 |
| 20260902215003 | 95 | 326 | 3.0 | 8.0 | 0.00 | 0.00 | 0.00 | 46 | 1016.4 |
| 20260902214508 | 95 | 360 | 4.0 | 7.0 | 0.00 | 0.00 | 0.00 | 46 | 1016.4 |
| 20260902214007 | 95 | 92 | 1.0 | 6.0 | 0.00 | 0.00 | 0.00 | 47 | 1016.4 |
| 20260902213508 | 95 | 9 | 2.0 | 8.0 | 0.00 | 0.00 | 0.00 | 48 | 1016.4 |
| 20260902213008 | 95 | 9 | 3.0 | 12.0 | 0.00 | 0.00 | 0.00 | 47 | 1016.5 |
| 20260902212506 | 95 | 9 | 7.0 | 12.0 | 0.00 | 0.00 | 0.00 | 48 | 1016.5 |
| 20260902212007 | 95 | 64 | 3.0 | 7.0 | 0.00 | 0.00 | 0.00 | 47 | 1016.5 |
| 20260902211506 | 95 | 24 | 2.0 | 10.0 | 0.00 | 0.00 | 0.00 | 48 | 1016.5 |
| 20260902211007 | 96 | 56 | 6.0 | 10.0 | 0.00 | 0.00 | 0.00 | 46 | 1016.5 |
| 20260902210504 | 96 | 50 | 4.0 | 9.0 | 0.00 | 0.00 | 0.00 | 46 | 1016.6 |
| 20260902210007 | 95 | 19 | 4.0 | 9.0 | 0.00 | 0.00 | 0.00 | 46 | 1016.6 |
| 20260902205505 | 95 | 71 | 3.0 | 9.0 | 0.00 | 0.00 | 0.00 | 44 | 1016.6 |
| 20260902205003 | 95 | 73 | 5.0 | 8.0 | 0.00 | 0.00 | 0.00 | 44 | 1016.6 |
| 20260902204513 | 96 | 83 | 2.0 | 7.0 | 0.00 | 0.00 | 0.00 | 46 | 1016.7 |
| 20260902204008 | 95 | 68 | 3.0 | 7.0 | 0.00 | 0.00 | 0.00 | 46 | 1016.7 |
| 20260902203506 | 94 | 44 | 3.0 | 8.0 | 0.00 | 0.00 | 0.00 | 48 | 1016.8 |
| 20260902203010 | 93 | 340 | 3.0 | 9.0 | 0.00 | 0.00 | 0.00 | 49 | 1016.7 |
| 20260902202506 | 93 | 360 | 6.0 | 9.0 | 0.00 | 0.00 | 0.00 | 49 | 1016.8 |
| 20260902202009 | 93 | 360 | 3.0 | 9.0 | 0.00 | 0.00 | 0.00 | 48 | 1017.0 |
| 20260902201510 | 93 | 179 | 4.0 | 8.0 | 0.00 | 0.00 | 0.00 | 47 | 1017.1 |
| 20260902201006 | 94 | 65 | 4.0 | 8.0 | 0.00 | 0.00 | 0.00 | 47 | 1017.3 |
| 20260902200506 | 94 | 177 | 3.0 | 7.0 | 0.00 | 0.00 | 0.00 | 49 | 1017.2 |
| 20260902200015 | 94 | 158 | 2.0 | 6.0 | 0.00 | 0.00 | 0.00 | 47 | 1017.2 |
| 20260902195508 | 93 | 116 | 1.0 | 4.0 | 0.00 | 0.00 | 0.00 | 46 | 1017.2 |
| 20260902195009 | 93 | 200 | 2.0 | 4.0 | 0.00 | 0.00 | 0.00 | 47 | 1017.3 |
| 20260902194513 | 94 | 243 | 2.0 | 5.0 | 0.00 | 0.00 | 0.00 | 44 | 1017.3 |
| 20260902194006 | 94 | 104 | 1.0 | 7.0 | 0.00 | 0.00 | 0.00 | 45 | 1017.4 |
| 20260902193507 | 95 | 49 | 3.0 | 11.0 | 0.00 | 0.00 | 0.00 | 44 | 1017.4 |
| 20260902193011 | 96 | 62 | 4.0 | 11.0 | 0.00 | 0.00 | 0.00 | 44 | 1017.4 |
| 20260902192506 | 95 | 85 | 7.0 | 14.0 | 0.00 | 0.00 | 0.00 | 45 | 1017.5 |
| 20260902192006 | 94 | 57 | 6.0 | 14.0 | 0.00 | 0.00 | 0.00 | 48 | 1017.6 |
| 20260902191515 | 93 | 64 | 5.0 | 9.0 | 0.00 | 0.00 | 0.00 | 49 | 1017.7 |
| 20260902191005 | 93 | 134 | 2.0 | 5.0 | 0.00 | 0.00 | 0.00 | 49 | 1017.9 |
| 20260902190510 | 93 | 9 | 2.0 | 5.0 | 0.00 | 0.00 | 0.00 | 50 | 1018.0 |
| 20260902190002 | 93 | 44 | 3.0 | 5.0 | 0.00 | 0.00 | 0.00 | 49 | 1018.0 |
| 20260902185503 | 93 | 51 | 2.0 | 5.0 | 0.00 | 0.00 | 0.00 | 48 | 1018.0 |
| 20260902185001 | 94 | 37 | 2.0 | 9.0 | 0.00 | 0.00 | 0.00 | 48 | 1018.2 |
| 20260902184502 | 94 | 54 | 4.0 | 9.0 | 0.00 | 0.00 | 0.00 | 46 | 1018.2 |
| 20260902184002 | 94 | 9 | 5.0 | 9.0 | 0.00 | 0.00 | 0.00 | 46 | 1018.2 |
| 20260902183502 | 95 | 360 | 3.0 | 9.0 | 0.00 | 0.00 | 0.00 | 45 | 1018.1 |
| 20260902183003 | 95 | 64 | 3.0 | 9.0 | 0.00 | 0.00 | 0.00 | 46 | 1018.2 |
| 20260902182501 | 95 | 38 | 1.0 | 4.0 | 0.00 | 0.00 | 0.00 | 45 | 1018.3 |
| 20260902182004 | 94 | 242 | 0.0 | 4.0 | 0.00 | 0.00 | 0.00 | 47 | 1018.3 |
| 20260902181503 | 93 | 273 | 1.0 | 7.0 | 0.00 | 0.00 | 0.00 | 45 | 1018.3 |
| 20260902181002 | 93 | 30 | 1.0 | 8.0 | 0.00 | 0.00 | 0.00 | 47 | 1018.5 |
| 20260902180502 | 93 | 99 | 4.0 | 8.0 | 0.00 | 0.00 | 0.00 | 46 | 1018.5 |
| 20260902180004 | 94 | 69 | 6.0 | 7.0 | 0.00 | 0.00 | 0.00 | 45 | 1018.6 |
| 20260902175501 | 95 | 72 | 4.0 | 7.0 | 0.00 | 0.00 | 0.00 | 43 | 1018.6 |
| 20260902175003 | 96 | 75 | 3.0 | 7.0 | 0.00 | 0.00 | 0.00 | 43 | 1018.7 |
| 20260902174503 | 96 | 94 | 4.0 | 7.0 | 0.00 | 0.00 | 0.00 | 42 | 1018.8 |
| 20260902174003 | 95 | 158 | 3.0 | 7.0 | 0.00 | 0.00 | 0.00 | 49 | 1018.9 |
| 20260902173505 | 94 | 348 | 2.0 | 8.0 | 0.00 | 0.00 | 0.00 | 45 | 1018.9 |
| 20260902173003 | 94 | 63 | 5.0 | 7.0 | 0.00 | 0.00 | 0.00 | 46 | 1019.1 |
| 20260902172501 | 94 | 55 | 4.0 | 7.0 | 0.00 | 0.00 | 0.00 | 45 | 1019.1 |
| 20260902172005 | 94 | 57 | 3.0 | 9.0 | 0.00 | 0.00 | 0.00 | 48 | 1019.1 |
| 20260902171503 | 94 | 11 | 4.0 | 9.0 | 0.00 | 0.00 | 0.00 | 49 | 1019.0 |
| 20260902171005 | 93 | 61 | 2.0 | 5.0 | 0.00 | 0.00 | 0.00 | 50 | 1019.2 |
| 20260902170502 | 92 | 94 | 3.0 | 6.0 | 0.00 | 0.00 | 0.00 | 54 | 1019.2 |
| 20260902170006 | 91 | 93 | 3.0 | 6.0 | 0.00 | 0.00 | 0.00 | 52 | 1019.3 |
| 20260902165503 | 92 | 74 | 3.0 | 6.0 | 0.00 | 0.00 | 0.00 | 51 | 1019.4 |
| 20260902165002 | 92 | 72 | 3.0 | 6.0 | 0.00 | 0.00 | 0.00 | 50 | 1019.4 |
| 20260902164503 | 93 | 145 | 1.0 | 6.0 | 0.00 | 0.00 | 0.00 | 48 | 1019.5 |
| 20260902164005 | 93 | 107 | 4.0 | 7.0 | 0.00 | 0.00 | 0.00 | 47 | 1019.6 |
| 20260902163503 | 93 | 86 | 3.0 | 10.0 | 0.00 | 0.00 | 0.00 | 47 | 1019.8 |
| 20260902163004 | 93 | 142 | 7.0 | 10.0 | 0.00 | 0.00 | 0.00 | 48 | 1019.8 |
| 20260902162502 | 92 | 116 | 1.0 | 6.0 | 0.00 | 0.00 | 0.00 | 49 | 1019.8 |
| 20260902162007 | 92 | 134 | 2.0 | 7.0 | 0.00 | 0.00 | 0.00 | 49 | 1019.9 |
| 20260902161508 | 92 | 101 | 3.0 | 7.0 | 0.00 | 0.00 | 0.00 | 49 | 1019.9 |
| 20260902161002 | 92 | 117 | 4.0 | 7.0 | 0.00 | 0.00 | 0.00 | 49 | 1019.9 |
| 20260902160501 | 92 | 43 | 2.0 | 5.0 | 0.00 | 0.00 | 0.00 | 50 | 1019.9 |
| 20260902160004 | 92 | 38 | 2.0 | 6.0 | 0.00 | 0.00 | 0.00 | 52 | 1020.0 |
| 20260902155503 | 91 | 11 | 3.0 | 6.0 | 0.00 | 0.00 | 0.00 | 51 | 1020.1 |
| 20260902155003 | 92 | 263 | 1.0 | 5.0 | 0.00 | 0.00 | 0.00 | 52 | 1020.1 |
| 20260902154503 | 91 | 348 | 3.0 | 5.0 | 0.00 | 0.00 | 0.00 | 52 | 1020.1 |
| 20260902154002 | 91 | 308 | 2.0 | 3.0 | 0.00 | 0.00 | 0.00 | 51 | 1020.2 |
| 20260902153506 | 91 | 9 | 1.0 | 4.0 | 0.00 | 0.00 | 0.00 | 52 | 1020.2 |
| 20260902153005 | 91 | 335 | 1.0 | 4.0 | 0.00 | 0.00 | 0.00 | 53 | 1020.2 |
| 20260902152504 | 91 | 327 | 2.0 | 4.0 | 0.00 | 0.00 | 0.00 | 53 | 1020.1 |
| 20260902152004 | 90 | 27 | 2.0 | 5.0 | 0.00 | 0.00 | 0.00 | 56 | 1020.2 |
| 20260902151509 | 90 | 61 | 2.0 | 5.0 | 0.00 | 0.00 | 0.00 | 58 | 1020.2 |
| 20260902151004 | 90 | 296 | 1.0 | 5.0 | 0.00 | 0.00 | 0.00 | 58 | 1020.2 |
| 20260902150505 | 89 | 236 | 1.0 | 4.0 | 0.00 | 0.00 | 0.00 | 59 | 1020.2 |
| 20260902150012 | 90 | 308 | 3.0 | 4.0 | 0.00 | 0.00 | 0.00 | 57 | 1020.2 |
| 20260902145503 | 90 | 75 | 2.0 | 4.0 | 0.00 | 0.00 | 0.00 | 61 | 1020.1 |
| 20260902145004 | 89 | 17 | 2.0 | 4.0 | 0.00 | 0.00 | 0.00 | 62 | 1020.1 |
| 20260902144504 | 89 | 36 | 2.0 | 4.0 | 0.00 | 0.00 | 0.00 | 61 | 1020.0 |
| 20260902144003 | 89 | 46 | 2.0 | 4.0 | 0.00 | 0.00 | 0.00 | 62 | 1020.1 |
| 20260902143507 | 89 | 71 | 2.0 | 4.0 | 0.00 | 0.00 | 0.00 | 63 | 1020.0 |
| 20260902143004 | 89 | 53 | 0.0 | 4.0 | 0.00 | 0.00 | 0.00 | 63 | 1020.0 |
| 20260902142504 | 88 | 32 | 2.0 | 4.0 | 0.00 | 0.00 | 0.00 | 64 | 1020.1 |
| 20260902142004 | 88 | 37 | 1.0 | 3.0 | 0.00 | 0.00 | 0.00 | 63 | 1020.0 |
| 20260902141503 | 87 | 36 | 1.0 | 3.0 | 0.00 | 0.00 | 0.00 | 67 | 1020.0 |
| 20260902141003 | 87 | 74 | 1.0 | 3.0 | 0.00 | 0.00 | 0.00 | 65 | 1020.0 |
| 20260902140507 | 87 | 52 | 1.0 | 3.0 | 0.00 | 0.00 | 0.00 | 65 | 1020.0 |
| 20260902140006 | 87 | 60 | 2.0 | 3.0 | 0.00 | 0.00 | 0.00 | 66 | 1020.0 |
| 20260902135509 | 86 | 45 | 0.0 | 3.0 | 0.00 | 0.00 | 0.00 | 67 | 1020.0 |
| 20260902135004 | 86 | 76 | 1.0 | 3.0 | 0.00 | 0.00 | 0.00 | 68 | 1020.1 |
| 20260902134504 | 86 | 76 | 1.0 | 3.0 | 0.00 | 0.00 | 0.00 | 69 | 1020.2 |
| 20260902134004 | 85 | 91 | 0.0 | 2.0 | 0.00 | 0.00 | 0.00 | 70 | 1020.1 |
| 20260902133502 | 84 | 76 | 1.0 | 2.0 | 0.00 | 0.00 | 0.00 | 71 | 1020.1 |
| 20260902133005 | 84 | 140 | 1.0 | 2.0 | 0.00 | 0.00 | 0.00 | 71 | 1020.1 |
| 20260902132504 | 83 | 126 | 0.0 | 2.0 | 0.00 | 0.00 | 0.00 | 73 | 1020.1 |
| 20260902132004 | 83 | 142 | 1.0 | 2.0 | 0.00 | 0.00 | 0.00 | 74 | 1020.1 |
| 20260902131510 | 82 | 117 | 1.0 | 2.0 | 0.00 | 0.00 | 0.00 | 74 | 1020.1 |
| 20260902131005 | 81 | 87 | 0.0 | 2.0 | 0.00 | 0.00 | 0.00 | 78 | 1020.0 |
| 20260902130504 | 80 | 84 | 1.0 | 2.0 | 0.00 | 0.00 | 0.00 | 79 | 1019.9 |
| 20260902130010 | 79 | 84 | 0.0 | 2.0 | 0.00 | 0.00 | 0.00 | 81 | 1019.9 |
| 20260902125504 | 78 | 124 | 0.0 | 0.0 | 0.00 | 0.00 | 0.00 | 83 | 1019.9 |
| 20260902125003 | 77 | 255 | 0.0 | 0.0 | 0.00 | 0.00 | 0.00 | 86 | 1019.8 |
| 20260902124514 | 76 | 255 | 0.0 | 0.0 | 0.00 | 0.00 | 0.00 | 85 | 1019.8 |
| 20260902124004 | 76 | 255 | 0.0 | 0.0 | 0.00 | 0.00 | 0.00 | 86 | 1019.8 |
| 20260902123511 | 75 | 324 | 0.0 | 0.0 | 0.00 | 0.00 | 0.00 | 87 | 1019.9 |
| 20260902123012 | 74 | 340 | 0.0 | 0.0 | 0.00 | 0.00 | 0.00 | 90 | 1019.7 |
| 20260902122507 | 73 | 256 | 0.0 | 0.0 | 0.00 | 0.00 | 0.00 | 91 | 1019.6 |
| 20260902122003 | 72 | 255 | 0.0 | 0.0 | 0.00 | 0.00 | 0.00 | 91 | 1019.5 |
| 20260902121503 | 72 | 255 | 0.0 | 0.0 | 0.00 | 0.00 | 0.00 | 91 | 1019.5 |
| 20260902121004 | 71 | 255 | 0.0 | 0.0 | 0.00 | 0.00 | 0.00 | 91 | 1019.5 |
| 20260902120505 | 71 | 255 | 0.0 | 0.0 | 0.00 | 0.00 | 0.00 | 91 | 1019.4 |
| 20260902120010 | 70 | 255 | 0.0 | 0.0 | 0.00 | 0.00 | 0.00 | 91 | 1019.5 |
| 20260902115506 | 70 | 255 | 0.0 | 0.0 | 0.00 | 0.00 | 0.00 | 90 | 1019.3 |
| 20260902115007 | 70 | 255 | 0.0 | 0.0 | 0.00 | 0.00 | 0.00 | 90 | 1019.3 |
| 20260902114516 | 70 | 255 | 0.0 | 0.0 | 0.00 | 0.00 | 0.00 | 90 | 1019.2 |
| 20260902114010 | 70 | 255 | 0.0 | 0.0 | 0.00 | 0.00 | 0.00 | 90 | 1019.2 |
| 20260902113503 | 70 | 255 | 0.0 | 0.0 | 0.00 | 0.00 | 0.00 | 90 | 1019.2 |
| 20260902113025 | 70 | 255 | 0.0 | 0.0 | 0.00 | 0.00 | 0.00 | 90 | 1019.2 |
| 20260902112508 | 70 | 255 | 0.0 | 0.0 | 0.00 | 0.00 | 0.00 | 90 | 1019.2 |
| 20260902112006 | 70 | 255 | 0.0 | 0.0 | 0.00 | 0.00 | 0.00 | 90 | 1019.2 |
| 20260902111538 | 70 | 255 | 0.0 | 0.0 | 0.00 | 0.00 | 0.00 | 90 | 1019.1 |
| 20260902111006 | 70 | 255 | 0.0 | 0.0 | 0.00 | 0.00 | 0.00 | 90 | 1019.1 |
| 20260902110504 | 70 | 255 | 0.0 | 0.0 | 0.00 | 0.00 | 0.00 | 90 | 1019.0 |
| 20260902110013 | 70 | 255 | 0.0 | 0.0 | 0.00 | 0.00 | 0.00 | 90 | 1018.9 |
| 20260902105506 | 71 | 255 | 0.0 | 0.0 | 0.00 | 0.00 | 0.00 | 89 | 1018.8 |
| 20260902105007 | 71 | 255 | 0.0 | 0.0 | 0.00 | 0.00 | 0.00 | 89 | 1018.8 |
| 20260902104528 | 71 | 255 | 0.0 | 0.0 | 0.00 | 0.00 | 0.00 | 89 | 1018.9 |
| 20260902104009 | 71 | 255 | 0.0 | 0.0 | 0.00 | 0.00 | 0.00 | 89 | 1018.9 |
| 20260902103509 | 71 | 255 | 0.0 | 0.0 | 0.00 | 0.00 | 0.00 | 89 | 1018.8 |
| 20260902103015 | 71 | 255 | 0.0 | 0.0 | 0.00 | 0.00 | 0.00 | 89 | 1018.8 |
| 20260902102503 | 71 | 255 | 0.0 | 0.0 | 0.00 | 0.00 | 0.00 | 89 | 1018.8 |
| 20260902102015 | 71 | 255 | 0.0 | 0.0 | 0.00 | 0.00 | 0.00 | 89 | 1018.7 |
| 20260902101516 | 71 | 255 | 0.0 | 0.0 | 0.00 | 0.00 | 0.00 | 89 | 1018.6 |
| 20260902101013 | 71 | 255 | 0.0 | 0.0 | 0.00 | 0.00 | 0.00 | 89 | 1018.6 |
| 20260902100508 | 71 | 255 | 0.0 | 0.0 | 0.00 | 0.00 | 0.00 | 88 | 1018.6 |
| 20260902100007 | 71 | 255 | 0.0 | 0.0 | 0.00 | 0.00 | 0.00 | 88 | 1018.5 |
| 20260902095504 | 71 | 255 | 0.0 | 0.0 | 0.00 | 0.00 | 0.00 | 88 | 1018.5 |
| 20260902095001 | 71 | 261 | 0.0 | 0.0 | 0.00 | 0.00 | 0.00 | 88 | 1018.5 |
| 20260902094517 | 71 | 256 | 0.0 | 0.0 | 0.00 | 0.00 | 0.00 | 88 | 1018.4 |
| 20260902094001 | 71 | 255 | 0.0 | 0.0 | 0.00 | 0.00 | 0.00 | 87 | 1018.3 |
| 20260902093502 | 72 | 255 | 0.0 | 0.0 | 0.00 | 0.00 | 0.00 | 87 | 1018.3 |
| 20260902093003 | 72 | 255 | 0.0 | 0.0 | 0.00 | 0.00 | 0.00 | 87 | 1018.2 |
| 20260902092502 | 72 | 255 | 0.0 | 0.0 | 0.00 | 0.00 | 0.00 | 87 | 1018.2 |
| 20260902092004 | 72 | 212 | 0.0 | 0.0 | 0.00 | 0.00 | 0.00 | 87 | 1018.2 |
| 20260902091503 | 72 | 212 | 0.0 | 2.0 | 0.00 | 0.00 | 0.00 | 87 | 1018.3 |
| 20260902091002 | 72 | 212 | 0.0 | 2.0 | 0.00 | 0.00 | 0.00 | 87 | 1018.1 |